KD6VLN-14 Weather Reports


Display with metric or nautical units.
time (UTC)temp
F
wind
direction
speed
MPH
gust
MPH
rain 1hr
in
rain 24hr
in
rain mn
in
humidity
%
barometer
mb
20260507162907 83 354 2.0 5.0 0.00 0.00 0.00 35
20260507162407 83 306 2.0 5.0 0.00 0.00 0.00 35
20260507161912 82 356 2.0 6.0 0.00 0.00 0.00 35
20260507161407 83 277 3.0 6.0 0.00 0.00 0.00 36
20260507161324 82 310 2.0 6.0 0.00 0.00 0.00 35
20260507160907 82 310 2.0 6.0 0.00 0.00 0.00 35
20260507160407 81 343 1.0 3.0 0.00 0.00 0.00 35
20260507155907 80 91 1.0 3.0 0.00 0.00 0.00 35
20260507155407 80 108 1.0 5.0 0.00 0.00 0.00 36
20260507154907 80 252 3.0 5.0 0.00 0.00 0.00 36
20260507154407 79 262 1.0 3.0 0.00 0.00 0.00 36
20260507153907 78 301 1.0 4.0 0.00 0.00 0.00 36
20260507152907 78 268 3.0 4.0 0.00 0.00 0.00 35
20260507152407 78 316 2.0 4.0 0.00 0.00 0.00 34
20260507151910 78 315 1.0 4.0 0.00 0.00 0.00 34
20260507151407 77 356 2.0 4.0 0.00 0.00 0.00 34
20260507150909 76 344 1.0 4.0 0.00 0.00 0.00 35
20260507150407 75 346 2.0 4.0 0.00 0.00 0.00 35
20260507145907 75 340 1.0 3.0 0.00 0.00 0.00 35
20260507145407 75 303 2.0 3.0 0.00 0.00 0.00 36
20260507144907 74 354 2.0 3.0 0.00 0.00 0.00 35
20260507144407 74 344 1.0 3.0 0.00 0.00 0.00 35
20260507143907 74 358 1.0 3.0 0.00 0.00 0.00 35
20260507143408 74 313 1.0 3.0 0.00 0.00 0.00 36
20260507142907 73 291 2.0 3.0 0.00 0.00 0.00 36
20260507142407 72 337 0.0 2.0 0.00 0.00 0.00 35
20260507141907 71 266 1.0 3.0 0.00 0.00 0.00 36
20260507141407 70 315 1.0 3.0 0.00 0.00 0.00 36
20260507140907 69 264 1.0 3.0 0.00 0.00 0.00 36
20260507140408 69 327 1.0 3.0 0.00 0.00 0.00 36
20260507135908 69 227 1.0 3.0 0.00 0.00 0.00 36
20260507135408 68 259 2.0 3.0 0.00 0.00 0.00 36
20260507134907 66 326 0.0 2.0 0.00 0.00 0.00 36
20260507134407 65 14 0.0 3.0 0.00 0.00 0.00 36
20260507133907 65 42 1.0 3.0 0.00 0.00 0.00 36
20260507133416 64 40 1.0 3.0 0.00 0.00 0.00 36
20260507132907 63 45 0.0 1.0 0.00 0.00 0.00 36
20260507132407 62 93 0.0 2.0 0.00 0.00 0.00 36
20260507131908 61 128 1.0 3.0 0.00 0.00 0.00 37
20260507131407 60 128 2.0 3.0 0.00 0.00 0.00 36
20260507130907 59 129 2.0 3.0 0.00 0.00 0.00 36
20260507130407 57 130 2.0 3.0 0.00 0.00 0.00 36
20260507125909 56 118 1.0 3.0 0.00 0.00 0.00 36
20260507125410 55 130 1.0 3.0 0.00 0.00 0.00 36
20260507124909 55 131 0.0 3.0 0.00 0.00 0.00 36
20260507124407 54 122 0.0 0.0 0.00 0.00 0.00 37
20260507123907 54 93 0.0 0.0 0.00 0.00 0.00 36
20260507123407 54 93 0.0 0.0 0.00 0.00 0.00 36
20260507122909 54 109 0.0 0.0 0.00 0.00 0.00 36
20260507122408 54 124 0.0 0.0 0.00 0.00 0.00 37
20260507121907 54 135 0.0 0.0 0.00 0.00 0.00 36
20260507121407 54 118 0.0 0.0 0.00 0.00 0.00 36
20260507120907 54 106 0.0 0.0 0.00 0.00 0.00 36
20260507120407 54 76 0.0 0.0 0.00 0.00 0.00 36
20260507115907 54 43 0.0 0.0 0.00 0.00 0.00 35
20260507115407 54 79 0.0 0.0 0.00 0.00 0.00 35
20260507114908 55 57 0.0 0.0 0.00 0.00 0.00 35
20260507114407 55 63 0.0 0.0 0.00 0.00 0.00 35
20260507113907 56 48 0.0 0.0 0.00 0.00 0.00 35
20260507113407 56 50 0.0 0.0 0.00 0.00 0.00 35
20260507112907 56 71 0.0 0.0 0.00 0.00 0.00 36
20260507112413 56 68 0.0 0.0 0.00 0.00 0.00 36
20260507111907 56 121 0.0 0.0 0.00 0.00 0.00 36
20260507111407 56 114 0.0 0.0 0.00 0.00 0.00 36
20260507110907 56 120 0.0 0.0 0.00 0.00 0.00 36
20260507110407 56 116 0.0 0.0 0.00 0.00 0.00 36
20260507105907 55 174 0.0 0.0 0.00 0.00 0.00 36
20260507105407 56 134 0.0 0.0 0.00 0.00 0.00 36
20260507104907 56 150 0.0 0.0 0.00 0.00 0.00 36
20260507104407 56 133 0.0 0.0 0.00 0.00 0.00 36
20260507103907 56 118 0.0 0.0 0.00 0.00 0.00 36
20260507103407 55 129 0.0 0.0 0.00 0.00 0.00 36
20260507102907 55 135 0.0 0.0 0.00 0.00 0.00 37
20260507102408 55 147 0.0 0.0 0.00 0.00 0.00 37
20260507101907 55 133 0.0 0.0 0.00 0.00 0.00 36
20260507101407 55 135 0.0 0.0 0.00 0.00 0.00 36
20260507100908 54 119 0.0 0.0 0.00 0.00 0.00 36
20260507100407 54 62 0.0 0.0 0.00 0.00 0.00 35
20260507095907 55 45 0.0 0.0 0.00 0.00 0.00 35
20260507095407 55 45 0.0 0.0 0.00 0.00 0.00 35
20260507094907 55 45 0.0 0.0 0.00 0.00 0.00 35
20260507094407 55 60 0.0 0.0 0.00 0.00 0.00 35
20260507093907 55 45 0.0 0.0 0.00 0.00 0.00 35
20260507093407 55 49 0.0 0.0 0.00 0.00 0.00 35
20260507092907 55 48 0.0 0.0 0.00 0.00 0.00 35
20260507092407 55 45 0.0 0.0 0.00 0.00 0.00 35
20260507091907 56 25 0.0 0.0 0.00 0.00 0.00 35
20260507091408 56 359 0.0 0.0 0.00 0.00 0.00 36
20260507090908 57 218 0.0 0.0 0.00 0.00 0.00 36
20260507090407 57 270 0.0 0.0 0.00 0.00 0.00 36
20260507085907 58 278 0.0 0.0 0.00 0.00 0.00 35
20260507085407 58 233 0.0 0.0 0.00 0.00 0.00 36
20260507084907 59 202 0.0 0.0 0.00 0.00 0.00 36
20260507084407 59 203 0.0 0.0 0.00 0.00 0.00 36
20260507083907 59 196 0.0 3.0 0.00 0.00 0.00 36
20260507083408 60 198 0.0 5.0 0.00 0.00 0.00 36
20260507082907 60 198 1.0 5.0 0.00 0.00 0.00 37
20260507082408 60 205 1.0 5.0 0.00 0.00 0.00 36
20260507081907 60 210 1.0 5.0 0.00 0.00 0.00 36
20260507081459 60 215 1.0 5.0 0.00 0.00 0.00 36
20260507081407 60 215 1.0 5.0 0.00 0.00 0.00 36
20260507081036 60 207 2.0 5.0 0.00 0.00 0.00 36
20260507080907 60 207 2.0 5.0 0.00 0.00 0.00 36
20260507080407 60 209 2.0 5.0 0.00 0.00 0.00 37
20260507075938 60 191 2.0 5.0 0.00 0.00 0.00 36
20260507075907 60 191 2.0 5.0 0.00 0.00 0.00 36
20260507075539 60 185 0.0 3.0 0.00 0.00 0.00 37
20260507075407 60 185 0.0 3.0 0.00 0.00 0.00 37
20260507075022 60 190 0.0 2.0 0.00 0.00 0.00 36
20260507074907 60 190 0.0 2.0 0.00 0.00 0.00 36
20260507074407 60 165 0.0 1.0 0.00 0.00 0.00 36
20260507073907 60 132 0.0 1.0 0.00 0.00 0.00 36
20260507073407 59 207 0.0 0.0 0.00 0.00 0.00 36
20260507072907 59 217 0.0 0.0 0.00 0.00 0.00 36
20260507072407 59 233 0.0 0.0 0.00 0.00 0.00 36
20260507071907 59 298 0.0 0.0 0.00 0.00 0.00 36
20260507071409 59 290 0.0 0.0 0.00 0.00 0.00 36
20260507070945 58 256 0.0 0.0 0.00 0.00 0.00 36
20260507070907 58 256 0.0 0.0 0.00 0.00 0.00 36
20260507070438 58 277 0.0 0.0 0.00 0.00 0.00 36
20260507070407 58 277 0.0 0.0 0.00 0.00 0.00 36
20260507065907 58 13 0.0 0.0 0.00 0.00 0.00 35
20260507065520 59 21 0.0 0.0 0.00 0.00 0.00 35
20260507065407 59 21 0.0 0.0 0.00 0.00 0.00 35
20260507065001 59 32 0.0 0.0 0.00 0.00 0.00 35
20260507064907 59 32 0.0 0.0 0.00 0.00 0.00 35
20260507064510 60 224 0.0 0.0 0.00 0.00 0.00 36
20260507064407 60 224 0.0 0.0 0.00 0.00 0.00 36
20260507063907 60 256 0.0 0.0 0.00 0.00 0.00 36
20260507063407 60 243 0.0 0.0 0.00 0.00 0.00 36
20260507062948 60 203 0.0 0.0 0.00 0.00 0.00 36
20260507062907 60 203 0.0 0.0 0.00 0.00 0.00 36
20260507062527 60 195 0.0 0.0 0.00 0.00 0.00 36
20260507062407 60 195 0.0 0.0 0.00 0.00 0.00 36
20260507061949 61 226 0.0 2.0 0.00 0.00 0.00 36
20260507061907 61 226 0.0 2.0 0.00 0.00 0.00 36
20260507061505 61 225 0.0 2.0 0.00 0.00 0.00 36
20260507061407 61 225 0.0 2.0 0.00 0.00 0.00 36
20260507060911 62 206 0.0 1.0 0.00 0.00 0.00 36
20260507060447 61 205 0.0 1.0 0.00 0.00 0.00 36
20260507060407 61 205 0.0 1.0 0.00 0.00 0.00 36
20260507055907 61 134 0.0 0.0 0.00 0.00 0.00 36
20260507055449 61 355 0.0 0.0 0.00 0.00 0.00 35
20260507055407 61 355 0.0 0.0 0.00 0.00 0.00 35
20260507055007 61 333 0.0 0.0 0.00 0.00 0.00 35
20260507054907 61 333 0.0 0.0 0.00 0.00 0.00 35
20260507054407 62 2 0.0 0.0 0.00 0.00 0.00 35
20260507054042 62 97 0.0 0.0 0.00 0.00 0.00 36
20260507053959 62 97 0.0 0.0 0.00 0.00 0.00 36
20260507053907 62 97 0.0 0.0 0.00 0.00 0.00 36
20260507053409 61 105 0.0 0.0 0.00 0.00 0.00 36
20260507052948 61 59 0.0 0.0 0.00 0.00 0.00 35
20260507052907 61 59 0.0 0.0 0.00 0.00 0.00 35
20260507052521 62 24 0.0 0.0 0.00 0.00 0.00 35
20260507052407 62 24 0.0 0.0 0.00 0.00 0.00 35
20260507052028 62 164 0.0 0.0 0.00 0.00 0.00 36
20260507051910 62 164 0.0 0.0 0.00 0.00 0.00 36
20260507051454 63 78 0.0 0.0 0.00 0.00 0.00 35
20260507051407 63 78 0.0 0.0 0.00 0.00 0.00 35
20260507051022 63 110 0.0 0.0 0.00 0.00 0.00 36
20260507050907 63 110 0.0 0.0 0.00 0.00 0.00 36
20260507050410 63 129 0.0 0.0 0.00 0.00 0.00 36
20260507045908 62 99 0.0 0.0 0.00 0.00 0.00 36
20260507045446 62 90 0.0 0.0 0.00 0.00 0.00 35
20260507045408 62 90 0.0 0.0 0.00 0.00 0.00 35
20260507045112 62 87 0.0 0.0 0.00 0.00 0.00 35
20260507044907 62 87 0.0 0.0 0.00 0.00 0.00 35
20260507044459 62 81 0.0 2.0 0.00 0.00 0.00 35
20260507044407 62 81 0.0 2.0 0.00 0.00 0.00 35
20260507044125 62 58 0.0 2.0 0.00 0.00 0.00 35
20260507043908 62 58 0.0 2.0 0.00 0.00 0.00 35
20260507043411 62 32 0.0 2.0 0.00 0.00 0.00 35
20260507043038 63 276 0.0 0.0 0.00 0.00 0.00 35
20260507042909 63 276 0.0 0.0 0.00 0.00 0.00 35
20260507042536 63 224 0.0 0.0 0.00 0.00 0.00 36
20260507042410 63 224 0.0 0.0 0.00 0.00 0.00 36
20260507041952 63 294 0.0 0.0 0.00 0.00 0.00 36
20260507041907 63 294 0.0 0.0 0.00 0.00 0.00 36
20260507041407 64 264 0.0 0.0 0.00 0.00 0.00 36
20260507041050 63 232 0.0 0.0 0.00 0.00 0.00 36
20260507040951 63 232 0.0 0.0 0.00 0.00 0.00 36
20260507040907 63 232 0.0 0.0 0.00 0.00 0.00 36
20260507040514 64 302 0.0 0.0 0.00 0.00 0.00 35
20260507040407 64 302 0.0 0.0 0.00 0.00 0.00 35
20260507035951 64 33 0.0 1.0 0.00 0.00 0.00 35
20260507035911 64 33 0.0 1.0 0.00 0.00 0.00 35
20260507035457 64 52 0.0 2.0 0.00 0.00 0.00 35
20260507035407 64 52 0.0 2.0 0.00 0.00 0.00 35
20260507034946 64 89 0.0 3.0 0.00 0.00 0.00 35
20260507034909 64 89 0.0 3.0 0.00 0.00 0.00 35
20260507034456 64 52 0.0 3.0 0.00 0.00 0.00 35
20260507034407 64 52 0.0 3.0 0.00 0.00 0.00 35
20260507033954 64 87 0.0 3.0 0.00 0.00 0.00 35
20260507033907 64 87 0.0 3.0 0.00 0.00 0.00 35
20260507033814 65 83 0.0 3.0 0.00 0.00 0.00 35
20260507033407 65 83 0.0 3.0 0.00 0.00 0.00 35
20260507032907 65 79 1.0 3.0 0.00 0.00 0.00 35
20260507032407 66 303 0.0 3.0 0.00 0.00 0.00 35
20260507031907 66 285 1.0 7.0 0.00 0.00 0.00 35
20260507031407 67 272 3.0 7.0 0.00 0.00 0.00 36
20260507030907 67 271 3.0 5.0 0.00 0.00 0.00 36
20260507030407 67 271 3.0 5.0 0.00 0.00 0.00 36
20260507025907 67 270 3.0 5.0 0.00 0.00 0.00 36
20260507025407 68 274 3.0 5.0 0.00 0.00 0.00 36
20260507025258 68 278 2.0 5.0 0.00 0.00 0.00 36
20260507024907 68 278 2.0 5.0 0.00 0.00 0.00 36
20260507024407 68 277 3.0 6.0 0.00 0.00 0.00 36
20260507024255 69 291 3.0 7.0 0.00 0.00 0.00 36
20260507023908 69 291 3.0 7.0 0.00 0.00 0.00 36
20260507023407 69 285 3.0 7.0 0.00 0.00 0.00 36
20260507022909 69 278 3.0 6.0 0.00 0.00 0.00 36
20260507022407 69 275 2.0 6.0 0.00 0.00 0.00 35
20260507021907 70 294 3.0 6.0 0.00 0.00 0.00 35
20260507021408 71 274 3.0 7.0 0.00 0.00 0.00 36
20260507020907 72 266 4.0 7.0 0.00 0.00 0.00 36
20260507020407 72 281 3.0 7.0 0.00 0.00 0.00 36
20260507015907 73 300 3.0 6.0 0.00 0.00 0.00 35
20260507015407 74 300 3.0 6.0 0.00 0.00 0.00 35
20260507014907 75 282 4.0 7.0 0.00 0.00 0.00 35
20260507014408 75 301 3.0 7.0 0.00 0.00 0.00 35
20260507013907 76 300 3.0 5.0 0.00 0.00 0.00 35
20260507013407 77 312 3.0 6.0 0.00 0.00 0.00 35
20260507012907 78 288 3.0 6.0 0.00 0.00 0.00 35
20260507012407 78 290 3.0 6.0 0.00 0.00 0.00 35
20260507011907 79 293 3.0 6.0 0.00 0.00 0.00 35
20260507011410 79 315 2.0 5.0 0.00 0.00 0.00 35
20260507010907 80 282 3.0 5.0 0.00 0.00 0.00 35
20260507010407 81 300 3.0 8.0 0.00 0.00 0.00 35
20260507005907 81 300 4.0 8.0 0.00 0.00 0.00 35
20260507005407 81 310 2.0 5.0 0.00 0.00 0.00 35
20260507004907 81 342 2.0 5.0 0.00 0.00 0.00 35
20260507004407 82 316 3.0 7.0 0.00 0.00 0.00 35
20260507003907 82 309 4.0 9.0 0.00 0.00 0.00 35
20260507003522 83 312 3.0 9.0 0.00 0.00 0.00 35
20260507003407 83 312 3.0 9.0 0.00 0.00 0.00 35
20260507003235 83 312 3.0 6.0 0.00 0.00 0.00 35
20260507002907 83 312 3.0 6.0 0.00 0.00 0.00 35
20260507002407 83 310 3.0 6.0 0.00 0.00 0.00 35
20260507001907 83 340 3.0 6.0 0.00 0.00 0.00 35
20260507001407 83 310 2.0 5.0 0.00 0.00 0.00 35
20260507000907 83 0 1.0 7.0 0.00 0.00 0.00 35
20260507000409 83 319 3.0 7.0 0.00 0.00 0.00 35
20260506235907 83 356 3.0 6.0 0.00 0.00 0.00 35
20260506235407 83 347 3.0 7.0 0.00 0.00 0.00 35
20260506234907 83 322 3.0 7.0 0.00 0.00 0.00 35
20260506234407 83 351 3.0 9.0 0.00 0.00 0.00 35
20260506233907 84 298 5.0 9.0 0.00 0.00 0.00 35
20260506233407 83 321 3.0 6.0 0.00 0.00 0.00 35
20260506232907 84 316 4.0 6.0 0.00 0.00 0.00 35
20260506232407 84 310 4.0 7.0 0.00 0.00 0.00 35
20260506231907 84 6 3.0 7.0 0.00 0.00 0.00 35
20260506231407 84 319 3.0 6.0 0.00 0.00 0.00 35
20260506230907 84 317 3.0 6.0 0.00 0.00 0.00 35
20260506230407 84 188 3.0 5.0 0.00 0.00 0.00 36
20260506225908 84 242 3.0 6.0 0.00 0.00 0.00 36
20260506225906 83 311 3.0 8.0 0.00 0.00 0.00 34
20260506225407 83 311 3.0 8.0 0.00 0.00 0.00 34
20260506225212 83 309 4.0 8.0 0.00 0.00 0.00 34
20260506224907 83 309 4.0 8.0 0.00 0.00 0.00 34
20260506224651 84 283 4.0 10.0 0.00 0.00 0.00 34
20260506224410 84 283 4.0 10.0 0.00 0.00 0.00 34
20260506224226 84 272 5.0 10.0 0.00 0.00 0.00 35
20260506223907 84 272 5.0 10.0 0.00 0.00 0.00 35
20260506223710 85 305 5.0 10.0 0.00 0.00 0.00 34
20260506223407 85 305 5.0 10.0 0.00 0.00 0.00 34
20260506223147 85 347 3.0 7.0 0.00 0.00 0.00 34
20260506222907 85 347 3.0 7.0 0.00 0.00 0.00 34
20260506222644 85 301 4.0 7.0 0.00 0.00 0.00 34
20260506222408 85 301 4.0 7.0 0.00 0.00 0.00 34
20260506222214 84 306 3.0 7.0 0.00 0.00 0.00 34
20260506221908 84 306 3.0 7.0 0.00 0.00 0.00 34
20260506221710 83 348 3.0 7.0 0.00 0.00 0.00 35
20260506221407 83 348 3.0 7.0 0.00 0.00 0.00 35
20260506221312 84 247 3.0 10.0 0.00 0.00 0.00 36
20260506220907 84 247 3.0 10.0 0.00 0.00 0.00 36
20260506220640 84 252 5.0 10.0 0.00 0.00 0.00 36
20260506220407 84 252 5.0 10.0 0.00 0.00 0.00 36
20260506220325 84 267 4.0 10.0 0.00 0.00 0.00 36
20260506215907 84 267 4.0 10.0 0.00 0.00 0.00 36
20260506215657 84 355 1.0 8.0 0.00 0.00 0.00 35
20260506215408 84 355 1.0 8.0 0.00 0.00 0.00 35
20260506215301 84 283 3.0 9.0 0.00 0.00 0.00 35
20260506214907 84 283 3.0 9.0 0.00 0.00 0.00 35
20260506214658 85 272 5.0 9.0 0.00 0.00 0.00 35
20260506214408 85 272 5.0 9.0 0.00 0.00 0.00 35
20260506214259 85 279 2.0 7.0 0.00 0.00 0.00 34
20260506213907 85 279 2.0 7.0 0.00 0.00 0.00 34
20260506213650 85 271 3.0 7.0 0.00 0.00 0.00 34
20260506213407 85 271 3.0 7.0 0.00 0.00 0.00 34
20260506213207 83 357 1.0 8.0 0.00 0.00 0.00 34
20260506212907 83 357 1.0 8.0 0.00 0.00 0.00 34
20260506212805 83 295 3.0 8.0 0.00 0.00 0.00 36
20260506212412 83 295 3.0 8.0 0.00 0.00 0.00 36
20260506212246 83 324 3.0 6.0 0.00 0.00 0.00 35
20260506211907 83 324 3.0 6.0 0.00 0.00 0.00 35
20260506211651 82 324 3.0 5.0 0.00 0.00 0.00 34
20260506211407 82 324 3.0 5.0 0.00 0.00 0.00 34
20260506211123 82 354 3.0 7.0 0.00 0.00 0.00 35
20260506210907 82 354 3.0 7.0 0.00 0.00 0.00 35
20260506210639 82 317 4.0 7.0 0.00 0.00 0.00 35
20260506210407 82 317 4.0 7.0 0.00 0.00 0.00 35
20260506210205 82 8 3.0 7.0 0.00 0.00 0.00 35
20260506205907 82 8 3.0 7.0 0.00 0.00 0.00 35
20260506205630 81 3 3.0 8.0 0.00 0.00 0.00 35
20260506205407 81 3 3.0 8.0 0.00 0.00 0.00 35
20260506204658 81 42 4.0 10.0 0.00 0.00 0.00 35
20260506204408 81 42 4.0 10.0 0.00 0.00 0.00 35
20260506204303 82 2 4.0 10.0 0.00 0.00 0.00 35
20260506203907 82 2 4.0 10.0 0.00 0.00 0.00 35
20260506203646 83 320 3.0 8.0 0.00 0.00 0.00 35
20260506203407 83 320 3.0 8.0 0.00 0.00 0.00 35
20260506203220 82 289 3.0 8.0 0.00 0.00 0.00 36
20260506202907 82 289 3.0 8.0 0.00 0.00 0.00 36
20260506202759 81 278 3.0 8.0 0.00 0.00 0.00 36
20260506202408 81 278 3.0 8.0 0.00 0.00 0.00 36
20260506202200 80 50 3.0 7.0 0.00 0.00 0.00 35
20260506201907 80 50 3.0 7.0 0.00 0.00 0.00 35
20260506201701 80 266 3.0 7.0 0.00 0.00 0.00 36
20260506201407 80 266 3.0 7.0 0.00 0.00 0.00 36
20260506201232 80 248 3.0 8.0 0.00 0.00 0.00 36
20260506200908 80 248 3.0 8.0 0.00 0.00 0.00 36
20260506200635 80 259 4.0 9.0 0.00 0.00 0.00 36
20260506200407 80 259 4.0 9.0 0.00 0.00 0.00 36
20260506200148 81 244 6.0 9.0 0.00 0.00 0.00 36
20260506195907 81 244 6.0 9.0 0.00 0.00 0.00 36
20260506195704 81 264 3.0 7.0 0.00 0.00 0.00 36
20260506195408 81 264 3.0 7.0 0.00 0.00 0.00 36
20260506195216 81 263 3.0 7.0 0.00 0.00 0.00 36
20260506194907 81 263 3.0 7.0 0.00 0.00 0.00 36
20260506194652 80 287 3.0 5.0 0.00 0.00 0.00 36
20260506194408 80 287 3.0 5.0 0.00 0.00 0.00 36
20260506194220 79 358 2.0 5.0 0.00 0.00 0.00 35
20260506193907 79 358 2.0 5.0 0.00 0.00 0.00 35
20260506193717 79 309 3.0 8.0 0.00 0.00 0.00 36
20260506193407 79 309 3.0 8.0 0.00 0.00 0.00 36
20260506193145 79 271 4.0 8.0 0.00 0.00 0.00 36
20260506192907 79 271 4.0 8.0 0.00 0.00 0.00 36
20260506192705 79 354 4.0 9.0 0.00 0.00 0.00 36
20260506192408 79 354 4.0 9.0 0.00 0.00 0.00 36
20260506192241 78 262 4.0 9.0 0.00 0.00 0.00 36
20260506191907 78 262 4.0 9.0 0.00 0.00 0.00 36
20260506191627 79 245 5.0 8.0 0.00 0.00 0.00 36
20260506191407 79 245 5.0 8.0 0.00 0.00 0.00 36
20260506191243 78 273 3.0 8.0 0.00 0.00 0.00 36
20260506190908 78 273 3.0 8.0 0.00 0.00 0.00 36
20260506190834 78 358 3.0 6.0 0.00 0.00 0.00 35
20260506190407 78 358 3.0 6.0 0.00 0.00 0.00 35
20260506190248 78 275 3.0 7.0 0.00 0.00 0.00 36
20260506185907 78 275 3.0 7.0 0.00 0.00 0.00 36
20260506185842 78 312 4.0 7.0 0.00 0.00 0.00 35
20260506185811 78 312 4.0 7.0 0.00 0.00 0.00 35
20260506185407 78 312 4.0 7.0 0.00 0.00 0.00 35
20260506185314 77 315 3.0 7.0 0.00 0.00 0.00 36
20260506184907 77 315 3.0 7.0 0.00 0.00 0.00 36
20260506184703 77 112 3.0 7.0 0.00 0.00 0.00 36
20260506184407 77 112 3.0 7.0 0.00 0.00 0.00 36
20260506184156 77 317 2.0 5.0 0.00 0.00 0.00 36
20260506183907 77 317 2.0 5.0 0.00 0.00 0.00 36
20260506183514 77 354 2.0 7.0 0.00 0.00 0.00 35
20260506183407 77 354 2.0 7.0 0.00 0.00 0.00 35
20260506183132 77 313 3.0 9.0 0.00 0.00 0.00 36
20260506182907 77 313 3.0 9.0 0.00 0.00 0.00 36
20260506182642 77 278 4.0 9.0 0.00 0.00 0.00 36
20260506182407 77 278 4.0 9.0 0.00 0.00 0.00 36
20260506182244 77 227 3.0 7.0 0.00 0.00 0.00 36
20260506181907 77 227 3.0 7.0 0.00 0.00 0.00 36
20260506181707 78 259 4.0 7.0 0.00 0.00 0.00 36
20260506181407 78 259 4.0 7.0 0.00 0.00 0.00 36
20260506181201 77 283 2.0 10.0 0.00 0.00 0.00 36
20260506180908 77 283 2.0 10.0 0.00 0.00 0.00 36
20260506180610 78 299 3.0 10.0 0.00 0.00 0.00 36
20260506180409 78 299 3.0 10.0 0.00 0.00 0.00 36
20260506180148 77 322 2.0 7.0 0.00 0.00 0.00 36
20260506175907 77 322 2.0 7.0 0.00 0.00 0.00 36
20260506175734 76 358 1.0 7.0 0.00 0.00 0.00 36
20260506175407 76 358 1.0 7.0 0.00 0.00 0.00 36
20260506175219 77 217 3.0 7.0 0.00 0.00 0.00 37
20260506174907 77 217 3.0 7.0 0.00 0.00 0.00 37
20260506174634 78 232 4.0 6.0 0.00 0.00 0.00 37
20260506174407 78 232 4.0 6.0 0.00 0.00 0.00 37
20260506174209 77 272 2.0 5.0 0.00 0.00 0.00 36
20260506173907 77 272 2.0 5.0 0.00 0.00 0.00 36
20260506173712 76 311 3.0 5.0 0.00 0.00 0.00 36
20260506173407 76 311 3.0 5.0 0.00 0.00 0.00 36
20260506173147 74 7 1.0 6.0 0.00 0.00 0.00 36
20260506172908 74 7 1.0 6.0 0.00 0.00 0.00 36
20260506172657 74 42 3.0 7.0 0.00 0.00 0.00 35
20260506172407 74 42 3.0 7.0 0.00 0.00 0.00 35
20260506172135 74 4 4.0 7.0 0.00 0.00 0.00 35
20260506171907 74 4 4.0 7.0 0.00 0.00 0.00 35
20260506171643 75 252 4.0 7.0 0.00 0.00 0.00 36
20260506171407 75 252 4.0 7.0 0.00 0.00 0.00 36
20260506171213 75 4 3.0 5.0 0.00 0.00 0.00 36
20260506170908 75 4 3.0 5.0 0.00 0.00 0.00 36
20260506170654 75 10 3.0 6.0 0.00 0.00 0.00 35
20260506170407 75 10 3.0 6.0 0.00 0.00 0.00 35
20260506170115 75 9 3.0 6.0 0.00 0.00 0.00 36
20260506165907 75 9 3.0 6.0 0.00 0.00 0.00 36
20260506165651 75 280 3.0 6.0 0.00 0.00 0.00 36
20260506165407 75 280 3.0 6.0 0.00 0.00 0.00 36
20260506165155 74 34 2.0 5.0 0.00 0.00 0.00 35
20260506164907 74 34 2.0 5.0 0.00 0.00 0.00 35
20260506164652 74 355 2.0 5.0 0.00 0.00 0.00 36
20260506164407 74 355 2.0 5.0 0.00 0.00 0.00 36
20260506164219 74 7 2.0 5.0 0.00 0.00 0.00 36
20260506163907 74 7 2.0 5.0 0.00 0.00 0.00 36
20260506163706 74 264 2.0 6.0 0.00 0.00 0.00 36
20260506163407 74 264 2.0 6.0 0.00 0.00 0.00 36
20260506163231 74 266 3.0 6.0 0.00 0.00 0.00 37